Regional Weather Roundup
Issued by NWS Cleveland, OH

Home | Current Version | Previous Version | Graphics & Text | Print | Product List | Glossary On
Versions: 1 2 3 4 5 6 7 8 9 10 11 12 13 14 15 16 17 18 19 20 21 22 23 24 25 26 27 28 29 30 31 32 33 34 35 36 37 38 39 40 41 42 43 44 45 46 47 48 49 50
000
ASUS41 KCLE 240702
RWRCLE
OHIO REGIONAL WEATHER ROUNDUP
NATIONAL WEATHER SERVICE CLEVELAND, OH
200 AM EST TUE JAN 24 2017

NOTE: "FAIR" INDICATES FEW OR NO CLOUDS BELOW 12,000 FEET WITH NO
SIGNIFICANT WEATHER AND/OR OBSTRUCTIONS TO VISIBILITY.

OHZ001>008-015>018-024>027-034-035-043-044-240800-
   NORTHWEST OHIO

CITY           SKY/WX    TMP DP  RH WIND       PRES   REMARKS
DEFIANCE       CLOUDY    40  39  97 N7        29.71S FOG
FINDLAY        LGT RAIN  39  35  86 N7        29.69S
TOLEDO EXPRESS LGT RAIN  39  39 100 CALM      29.70S FOG
TOLEDO EXEC    CLOUDY    38  37  97 NE9       29.72R
LIMA           CLOUDY    42  42 100 N6        29.68S FOG
$$

OHZ009>014-019>023-028>033-038-089-240800-
   NORTHEAST OHIO

CITY           SKY/WX    TMP DP  RH WIND       PRES   REMARKS
CLE-HOPKINS    LGT RAIN  39  35  86 N6        29.67F FOG
CLE-LAKEFRONT  MIX PCPN  36  35  96 NE13      29.66S FOG
CUY CO. ARPT   NOT AVBL
LORAIN-ELYRIA  LGT RAIN  37  34  89 NE5       29.66F FOG
ASHTABULA      CLOUDY    36  36 100 N5        29.65S FOG
AKRON-CANTON   CLOUDY    38  35  89 CALM      29.63R
WOOSTER        CLOUDY    39  37  92 NW3       29.64F FOG
MANSFIELD      LGT RAIN  38  38 100 W5        29.64F
YOUNGSTOWN     LGT RAIN  38  36  92 W6        29.62S FOG
$$

OHZ042-051>053-060>062-070>072-077>081-240800-
  SOUTHWEST OHIO

CITY           SKY/WX    TMP DP  RH WIND       PRES   REMARKS
CINC-COVINGTON CLOUDY    42  40  92 W9        29.72R
CINC-LUNKEN    CLOUDY    44  41  89 W5        29.72R
HAMILTON       CLOUDY    43  42  97 W6        29.73R FOG
DAYTON         CLOUDY    41  40  96 N7        29.69F FOG
WRIGHT-PAT AFB NOT AVBL
DAYTON GENERAL CLOUDY    42  40  92 N9        29.68F
WILMINGTON     LGT RAIN  40  40 100 NW13      29.67S
$$

OHZ036-037-039>041-045>050-054>059-063>069-073>076-082>088-240800-
  CENTRAL AND SOUTHEAST OHIO

CITY           SKY/WX    TMP DP  RH WIND       PRES   REMARKS
COLUMBUS       DRIZZLE   41  41 100 CALM      29.65S
OSU AIRPORT    LGT RAIN  40  40 100 NW7       29.66S
BOLTON FIELD   NOT AVBL
RICKENBACK AFB NOT AVBL
NEWARK         LGT RAIN  41  38  89 CALM      29.64F
MARION         NOT AVBL
LANCASTER      LGT RAIN  42  40  92 CALM      29.65S
ZANESVILLE     CLOUDY    40  35  83 N3        29.63F
NEW PHILLY     NOT AVBL
$$



USA.gov is the U.S. government's official web portal to all federal, state and local government web resources and services.